Simultaneous Nadir Overpasses (SNOs) Predictions

Prediction of SNOs between AURA and NPP Satellite Orbit:

Table of predicted SNOs for the next 14.0 days since TLE Epoch: 5/29/2021
Index Date (AURA) Time (AURA) Lat,Lon (AURA) SZA (AURA ) Date (NPP) Time (NPP) Lat,Lon (NPP) SZA (NPP ) Distance(km) Time Diff (sec)
1 05/30/2021 11:24:56 79.31, -95.78 71.11 05/30/2021 11:24:20 79.30, -95.92 71.17 3.08 36
2 05/30/2021 12:14:15 -79.62, 73.99 109.36 05/30/2021 12:14:56 -79.62, 74.00 109.39 0.21 41
3 06/02/2021 03:41:18 79.50, 21.39 70.49 06/02/2021 03:41:10 79.50, 21.47 70.48 1.56 8
4 06/02/2021 04:30:40 -79.69,-169.58 109.81 06/02/2021 04:31:50 -79.68,-169.65 109.85 1.59 70
5 06/04/2021 19:08:27 -79.23, -32.13 109.42 06/04/2021 19:07:31 -79.22, -32.25 109.35 2.45 56
6 06/04/2021 19:57:44 79.57, 137.76 70.09 06/04/2021 19:58:05 79.57, 137.78 70.07 0.36 21
7 06/07/2021 11:24:49 -79.45, 85.22 109.99 06/07/2021 11:24:21 -79.46, 85.36 109.99 3.15 28
8 06/07/2021 12:14:10 79.63,-105.89 69.75 06/07/2021 12:15:00 79.63,-105.91 69.72 0.32 50
9 06/10/2021 02:53:34 74.66, 14.16 75.76 06/10/2021 02:52:21 74.90, 12.62 76.00 52.28 73



Historial Predications of SNOs between AURA and NPP
